| time (UTC) | temp F | wind direction | speed knots | gust knots | rain 1hr in | rain 24hr in | rain mn in | humidity % | barometer mb |
| 20260505035405 | 74 | 0 | 0.0 | 0.9 | 0.00 | 0.00 | 0.00 | 54 | 1013.9 |
| 20260505034905 | 74 | 0 | 0.0 | 0.9 | 0.00 | 0.00 | 0.00 | 54 | 1014.0 |
| 20260505034142 | 73 | 0 | 0.0 | 0.9 | 0.00 | 0.00 | 0.00 | 54 | 1014.0 |
| 20260505033643 | 73 | 0 | 0.0 | 0.9 | 0.00 | 0.00 | 0.00 | 54 | 1014.0 |
| 20260505033139 | 73 | 254 | 0.0 | 0.9 | 0.00 | 0.00 | 0.00 | 54 | 1013.9 |
| 20260505032905 | 73 | 0 | 0.0 | 0.9 | 0.00 | 0.00 | 0.00 | 54 | 1013.9 |
| 20260505032400 | 73 | 0 | 0.0 | 0.9 | 0.00 | 0.00 | 0.00 | 53 | 1013.9 |
| 20260505031639 | 73 | 236 | 0.0 | 0.9 | 0.00 | 0.00 | 0.00 | 53 | 1014.0 |
| 20260505031139 | 74 | 0 | 0.0 | 1.7 | 0.00 | 0.00 | 0.00 | 54 | 1013.8 |
| 20260505030137 | 73 | 45 | 0.9 | 1.7 | 0.00 | 0.00 | 0.00 | 54 | 1013.7 |
| 20260505025637 | 73 | 0 | 0.0 | 1.7 | 0.00 | 0.00 | 0.00 | 54 | 1013.6 |
| 20260505025137 | 73 | 0 | 0.0 | 1.7 | 0.00 | 0.00 | 0.00 | 54 | 1013.7 |
| 20260505024854 | 73 | 0 | 0.0 | 1.7 | 0.00 | 0.00 | 0.00 | 54 | 1013.6 |
| 20260505023354 | 73 | 62 | 0.0 | 0.9 | 0.00 | 0.00 | 0.00 | 53 | 1013.7 |
| 20260505022900 | 73 | 0 | 0.0 | 1.7 | 0.00 | 0.00 | 0.00 | 53 | 1013.8 |
| 20260505022400 | 73 | 0 | 0.0 | 1.7 | 0.00 | 0.00 | 0.00 | 52 | 1013.7 |
| 20260505021904 | 73 | 0 | 0.0 | 0.9 | 0.00 | 0.00 | 0.00 | 53 | 1013.7 |
| 20260505021135 | 73 | 258 | 0.0 | 1.7 | 0.00 | 0.00 | 0.00 | 53 | 1013.7 |
| 20260505020635 | 73 | 327 | 0.0 | 1.7 | 0.00 | 0.00 | 0.00 | 53 | 1013.6 |
| 20260505020135 | 73 | 46 | 0.0 | 1.7 | 0.00 | 0.00 | 0.00 | 52 | 1013.6 |
| 20260505015635 | 73 | 0 | 0.0 | 1.7 | 0.00 | 0.00 | 0.00 | 52 | 1013.5 |
| 20260505015135 | 74 | 71 | 0.0 | 1.7 | 0.00 | 0.00 | 0.00 | 53 | 1013.5 |
| 20260505014635 | 73 | 0 | 0.0 | 1.7 | 0.00 | 0.00 | 0.00 | 54 | 1013.5 |
| 20260505014135 | 74 | 0 | 0.0 | 1.7 | 0.00 | 0.00 | 0.00 | 54 | 1013.4 |
| 20260505013635 | 74 | 41 | 0.0 | 1.7 | 0.00 | 0.00 | 0.00 | 53 | 1013.3 |
| 20260505013135 | 74 | 0 | 0.0 | 1.7 | 0.00 | 0.00 | 0.00 | 54 | 1013.1 |
| 20260505012636 | 74 | 216 | 0.0 | 1.7 | 0.00 | 0.00 | 0.00 | 55 | 1013.1 |
| 20260505012135 | 74 | 0 | 0.0 | 1.7 | 0.00 | 0.00 | 0.00 | 54 | 1013.1 |
| 20260505011635 | 73 | 0 | 0.0 | 1.7 | 0.00 | 0.00 | 0.00 | 54 | 1013.2 |
| 20260505011135 | 74 | 0 | 0.0 | 1.7 | 0.00 | 0.00 | 0.00 | 53 | 1013.3 |
| 20260505010632 | 74 | 238 | 0.0 | 1.7 | 0.00 | 0.00 | 0.00 | 54 | 1013.3 |
| 20260505010132 | 74 | 227 | 0.0 | 1.7 | 0.00 | 0.00 | 0.00 | 54 | 1013.2 |
| 20260505005853 | 73 | 0 | 0.0 | 1.7 | 0.00 | 0.00 | 0.00 | 54 | 1013.1 |
| 20260505005133 | 73 | 0 | 0.0 | 1.7 | 0.00 | 0.00 | 0.00 | 54 | 1013.2 |
| 20260505004630 | 73 | 0 | 0.0 | 0.9 | 0.00 | 0.00 | 0.00 | 53 | 1013.2 |
| 20260505004129 | 74 | 0 | 0.0 | 0.9 | 0.00 | 0.00 | 0.00 | 53 | 1013.4 |
| 20260505003630 | 74 | 0 | 0.0 | 1.7 | 0.00 | 0.00 | 0.00 | 53 | 1013.5 |
| 20260505003130 | 74 | 0 | 0.0 | 2.6 | 0.00 | 0.00 | 0.00 | 53 | 1013.6 |
| 20260505002848 | 74 | 0 | 0.0 | 2.6 | 0.00 | 0.00 | 0.00 | 54 | 1013.4 |
| 20260505002130 | 74 | 0 | 0.0 | 1.7 | 0.00 | 0.00 | 0.00 | 54 | 1013.4 |
| 20260505001630 | 74 | 0 | 0.0 | 3.5 | 0.00 | 0.00 | 0.00 | 53 | 1013.5 |
| 20260505001130 | 74 | 0 | 0.0 | 3.5 | 0.00 | 0.00 | 0.00 | 53 | 1013.6 |
| 20260505000627 | 74 | 257 | 0.0 | 1.7 | 0.00 | 0.00 | 0.00 | 53 | 1013.6 |
| 20260505000351 | 74 | 0 | 0.0 | 1.7 | 0.00 | 0.00 | 0.00 | 54 | 1013.7 |
| 20260504235624 | 74 | 200 | 0.0 | 1.7 | 0.00 | 0.00 | 0.00 | 54 | 1013.6 |
| 20260504235125 | 74 | 206 | 0.0 | 1.7 | 0.00 | 0.00 | 0.00 | 53 | 1013.5 |
| 20260504234625 | 74 | 214 | 0.0 | 2.6 | 0.00 | 0.00 | 0.00 | 53 | 1013.6 |
| 20260504234126 | 74 | 50 | 0.0 | 2.6 | 0.00 | 0.00 | 0.00 | 53 | 1013.6 |
| 20260504233846 | 74 | 0 | 0.0 | 0.9 | 0.00 | 0.00 | 0.00 | 53 | 1013.6 |
| 20260504233124 | 74 | 0 | 0.0 | 1.7 | 0.00 | 0.00 | 0.00 | 53 | 1013.7 |
| 20260504233110 | 75 | 0 | 0.9 | 2.6 | 0.00 | 0.00 | 0.00 | 53 | 1013.8 |
| 20260504232125 | 75 | 140 | 0.0 | 2.6 | 0.00 | 0.00 | 0.00 | 54 | 1013.8 |
| 20260504231625 | 75 | 197 | 0.0 | 2.6 | 0.00 | 0.00 | 0.00 | 54 | 1013.8 |
| 20260504231124 | 75 | 0 | 0.0 | 2.6 | 0.00 | 0.00 | 0.00 | 55 | 1013.8 |
| 20260504230626 | 76 | 203 | 0.9 | 2.6 | 0.00 | 0.00 | 0.00 | 55 | 1013.9 |
| 20260504230125 | 76 | 0 | 0.9 | 3.5 | 0.00 | 0.00 | 0.00 | 56 | 1013.9 |
| 20260504225622 | 76 | 143 | 0.9 | 3.5 | 0.00 | 0.00 | 0.00 | 55 | 1014.0 |
| 20260504225615 | 76 | 59 | 0.9 | 3.5 | 0.00 | 0.00 | 0.00 | 54 | 1013.9 |
| 20260504224624 | 76 | 303 | 0.9 | 2.6 | 0.00 | 0.00 | 0.00 | 54 | 1014.0 |
| 20260504224122 | 76 | 96 | 0.9 | 2.6 | 0.00 | 0.00 | 0.00 | 54 | 1014.1 |
| 20260504223622 | 76 | 0 | 0.0 | 1.7 | 0.00 | 0.00 | 0.00 | 55 | 1014.0 |
| 20260504223119 | 76 | 182 | 0.9 | 2.6 | 0.00 | 0.00 | 0.00 | 56 | 1014.2 |
| 20260504222620 | 76 | 236 | 0.9 | 2.6 | 0.00 | 0.00 | 0.00 | 56 | 1014.2 |
| 20260504222120 | 76 | 43 | 0.9 | 1.7 | 0.00 | 0.00 | 0.00 | 56 | 1014.1 |
| 20260504221620 | 76 | 109 | 0.0 | 2.6 | 0.00 | 0.00 | 0.00 | 56 | 1014.2 |
| 20260504221142 | 76 | 0 | 0.0 | 2.6 | 0.00 | 0.00 | 0.00 | 55 | 1014.1 |
| 20260504220621 | 76 | 56 | 0.9 | 2.6 | 0.00 | 0.00 | 0.00 | 55 | 1014.2 |
| 20260504220120 | 76 | 0 | 0.9 | 4.3 | 0.00 | 0.00 | 0.00 | 55 | 1014.5 |
| 20260504215620 | 77 | 0 | 0.9 | 4.3 | 0.00 | 0.00 | 0.00 | 55 | 1014.4 |
| 20260504215120 | 77 | 155 | 0.0 | 1.7 | 0.00 | 0.00 | 0.00 | 56 | 1014.4 |
| 20260504214620 | 77 | 232 | 0.9 | 4.3 | 0.00 | 0.00 | 0.00 | 57 | 1014.3 |
| 20260504214343 | 77 | 0 | 0.9 | 4.3 | 0.00 | 0.00 | 0.00 | 57 | 1014.4 |
| 20260504213621 | 77 | 0 | 0.9 | 2.6 | 0.00 | 0.00 | 0.00 | 57 | 1014.4 |
| 20260504213118 | 77 | 110 | 0.9 | 3.5 | 0.00 | 0.00 | 0.00 | 57 | 1014.4 |
| 20260504212619 | 77 | 8 | 0.9 | 3.5 | 0.00 | 0.00 | 0.00 | 57 | 1014.4 |
| 20260504211616 | 76 | 258 | 0.9 | 2.6 | 0.00 | 0.00 | 0.00 | 57 | 1014.7 |
| 20260504211115 | 76 | 150 | 0.9 | 2.6 | 0.00 | 0.00 | 0.00 | 57 | 1014.5 |
| 20260504210839 | 76 | 170 | 0.9 | 4.3 | 0.00 | 0.00 | 0.00 | 57 | 1014.7 |
| 20260504210115 | 76 | 0 | 0.9 | 4.3 | 0.00 | 0.00 | 0.00 | 57 | 1014.8 |
| 20260504205840 | 76 | 0 | 1.7 | 3.5 | 0.00 | 0.00 | 0.00 | 57 | 1014.7 |
| 20260504205333 | 76 | 178 | 1.7 | 4.3 | 0.00 | 0.00 | 0.00 | 57 | 1014.7 |
| 20260504204113 | 76 | 100 | 0.9 | 4.3 | 0.00 | 0.00 | 0.00 | 57 | 1014.8 |
| 20260504203612 | 76 | 276 | 1.7 | 5.2 | 0.00 | 0.00 | 0.00 | 57 | 1014.9 |
| 20260504203109 | 76 | 340 | 1.7 | 5.2 | 0.00 | 0.00 | 0.00 | 57 | 1015.0 |
| 20260504202610 | 76 | 53 | 1.7 | 5.2 | 0.00 | 0.00 | 0.00 | 57 | 1015.1 |
| 20260504202327 | 76 | 96 | 0.9 | 4.3 | 0.00 | 0.00 | 0.00 | 57 | 1015.2 |
| 20260504201609 | 76 | 267 | 0.9 | 4.3 | 0.00 | 0.00 | 0.00 | 57 | 1015.2 |
| 20260504201334 | 76 | 137 | 0.9 | 4.3 | 0.00 | 0.00 | 0.00 | 57 | 1015.2 |
| 20260504200606 | 76 | 348 | 0.9 | 3.5 | 0.00 | 0.00 | 0.00 | 57 | 1015.3 |
| 20260504200108 | 76 | 0 | 0.9 | 2.6 | 0.00 | 0.00 | 0.00 | 57 | 1015.5 |
| 20260504195607 | 76 | 175 | 0.9 | 2.6 | 0.00 | 0.00 | 0.00 | 57 | 1015.5 |
| 20260504195107 | 76 | 177 | 0.9 | 1.7 | 0.00 | 0.00 | 0.00 | 57 | 1015.6 |
| 20260504194607 | 75 | 228 | 0.9 | 2.6 | 0.00 | 0.00 | 0.00 | 57 | 1015.7 |
| 20260504194107 | 76 | 201 | 0.9 | 2.6 | 0.00 | 0.00 | 0.00 | 57 | 1015.9 |
| 20260504193832 | 75 | 300 | 1.7 | 4.3 | 0.00 | 0.00 | 0.00 | 57 | 1015.9 |
| 20260504193336 | 75 | 286 | 1.7 | 4.3 | 0.00 | 0.00 | 0.00 | 56 | 1016.0 |
| 20260504192605 | 75 | 51 | 0.9 | 3.5 | 0.00 | 0.00 | 0.00 | 57 | 1016.0 |
| 20260504192104 | 75 | 144 | 0.9 | 2.6 | 0.00 | 0.00 | 0.00 | 56 | 1016.0 |
| 20260504191829 | 75 | 206 | 0.9 | 3.5 | 0.00 | 0.00 | 0.00 | 56 | 1016.1 |
| 20260504191102 | 75 | 52 | 0.9 | 3.5 | 0.00 | 0.00 | 0.00 | 56 | 1016.1 |
| 20260504190602 | 75 | 140 | 0.9 | 3.5 | 0.00 | 0.00 | 0.00 | 56 | 1016.2 |
| 20260504185602 | 75 | 30 | 0.9 | 3.5 | 0.00 | 0.00 | 0.00 | 56 | 1016.1 |
| 20260504185102 | 75 | 216 | 1.7 | 5.2 | 0.00 | 0.00 | 0.00 | 56 | 1016.2 |
| 20260504184823 | 75 | 0 | 1.7 | 5.2 | 0.00 | 0.00 | 0.00 | 56 | 1016.4 |
| 20260504184102 | 75 | 348 | 1.7 | 5.2 | 0.00 | 0.00 | 0.00 | 56 | 1016.4 |
| 20260504183602 | 75 | 25 | 0.9 | 3.5 | 0.00 | 0.00 | 0.00 | 56 | 1016.4 |
| 20260504183103 | 75 | 78 | 0.9 | 3.5 | 0.00 | 0.00 | 0.00 | 56 | 1016.5 |
| 20260504182603 | 75 | 298 | 0.9 | 3.5 | 0.00 | 0.00 | 0.00 | 56 | 1016.6 |
| 20260504182103 | 75 | 172 | 0.9 | 2.6 | 0.00 | 0.00 | 0.00 | 56 | 1016.7 |
| 20260504181816 | 75 | 268 | 0.9 | 2.6 | 0.00 | 0.00 | 0.00 | 56 | 1016.9 |
| 20260504181658 | 74 | 197 | 0.9 | 2.6 | 0.00 | 0.00 | 0.00 | 56 | 1016.9 |
| 20260504180559 | 75 | 182 | 0.9 | 4.3 | 0.00 | 0.00 | 0.00 | 56 | 1016.9 |
| 20260504180319 | 75 | 191 | 1.7 | 5.2 | 0.00 | 0.00 | 0.00 | 56 | 1017.1 |
| 20260504175554 | 74 | 169 | 0.9 | 5.2 | 0.00 | 0.00 | 0.00 | 56 | 1017.1 |
| 20260504175054 | 74 | 195 | 0.9 | 2.6 | 0.00 | 0.00 | 0.00 | 56 | 1017.1 |
| 20260504174551 | 74 | 0 | 0.9 | 3.5 | 0.00 | 0.00 | 0.00 | 56 | 1017.0 |
| 20260504174050 | 74 | 208 | 0.9 | 3.5 | 0.00 | 0.00 | 0.00 | 56 | 1017.0 |
| 20260504173551 | 74 | 214 | 0.9 | 2.6 | 0.00 | 0.00 | 0.00 | 56 | 1017.0 |
| 20260504173050 | 74 | 215 | 0.9 | 3.5 | 0.00 | 0.00 | 0.00 | 56 | 1017.1 |
| 20260504172551 | 74 | 182 | 0.9 | 3.5 | 0.00 | 0.00 | 0.00 | 56 | 1017.2 |
| 20260504172051 | 74 | 85 | 0.9 | 3.5 | 0.00 | 0.00 | 0.00 | 56 | 1017.2 |
| 20260504171551 | 74 | 0 | 0.9 | 3.5 | 0.00 | 0.00 | 0.00 | 55 | 1017.1 |
| 20260504171051 | 74 | 278 | 0.9 | 4.3 | 0.00 | 0.00 | 0.00 | 55 | 1017.0 |
| 20260504170552 | 74 | 39 | 1.7 | 6.1 | 0.00 | 0.00 | 0.00 | 55 | 1017.0 |
| 20260504151044 | 74 | 43 | 0.9 | 3.5 | 0.00 | 0.00 | 0.00 | 55 | 1017.9 |
| 20260504150544 | 74 | 7 | 0.9 | 2.6 | 0.00 | 0.00 | 0.00 | 55 | 1017.8 |
| 20260504141301 | 73 | 197 | 0.0 | 1.7 | 0.00 | 0.00 | 0.00 | 55 | 1017.9 |
| 20260504140535 | 74 | 282 | 0.0 | 1.7 | 0.00 | 0.00 | 0.00 | 55 | 1018.0 |
| 20260504130533 | 74 | 0 | 0.0 | 0.9 | 0.00 | 0.00 | 0.00 | 54 | 1017.9 |
| 20260504110448 | 74 | 191 | 0.0 | 0.9 | 0.00 | 0.00 | 0.00 | 54 | 1017.1 |
| 20260504100155 | 74 | 0 | 0.0 | 0.9 | 0.00 | 0.00 | 0.00 | 54 | 1017.2 |
| 20260504081838 | 75 | 151 | 0.0 | 0.9 | 0.00 | 0.00 | 0.00 | 54 | 1017.4 |
| 20260504081556 | 75 | 0 | 0.0 | 0.9 | 0.00 | 0.00 | 0.00 | 54 | 1017.5 |
| 20260504081104 | 75 | 0 | 0.0 | 0.0 | 0.00 | 0.00 | 0.00 | 54 | 1017.5 |
| 20260504080338 | 75 | 0 | 0.0 | 0.9 | 0.00 | 0.00 | 0.00 | 53 | 1017.4 |
| 20260504070300 | 75 | 208 | 0.0 | 0.9 | 0.00 | 0.00 | 0.00 | 54 | 1017.9 |
| 20260504050225 | 76 | 0 | 0.0 | 0.0 | 0.00 | 0.00 | 0.00 | 56 | 1018.8 |
| 20260504045726 | 76 | 0 | 0.0 | 0.0 | 0.00 | 0.00 | 0.00 | 56 | 1018.7 |
| 20260504045225 | 76 | 0 | 0.0 | 0.0 | 0.00 | 0.00 | 0.00 | 56 | 1018.9 |
| 20260504045213 | 76 | 0 | 0.0 | 0.0 | 0.00 | 0.00 | 0.00 | 55 | 1018.9 |
| 20260504044226 | 76 | 0 | 0.0 | 0.0 | 0.00 | 0.00 | 0.00 | 55 | 1019.0 |
| 20260504043953 | 76 | 0 | 0.0 | 0.0 | 0.00 | 0.00 | 0.00 | 55 | 1019.0 |
| 20260504043226 | 76 | 0 | 0.0 | 0.0 | 0.00 | 0.00 | 0.00 | 55 | 1019.1 |
| 20260504042726 | 76 | 0 | 0.0 | 0.9 | 0.00 | 0.00 | 0.00 | 55 | 1019.0 |
| 20260504042209 | 76 | 0 | 0.0 | 0.9 | 0.00 | 0.00 | 0.00 | 55 | 1019.1 |
| 20260504041709 | 76 | 0 | 0.0 | 0.9 | 0.00 | 0.00 | 0.00 | 55 | 1019.1 |
| 20260504041209 | 76 | 146 | 0.0 | 0.0 | 0.00 | 0.00 | 0.00 | 54 | 1019.2 |
| 20260504040930 | 76 | 0 | 0.0 | 0.9 | 0.00 | 0.00 | 0.00 | 56 | 1019.0 |
| 20260504040209 | 76 | 0 | 0.0 | 0.9 | 0.00 | 0.00 | 0.00 | 56 | 1019.1 |
| 20260504035709 | 76 | 0 | 0.0 | 0.9 | 0.00 | 0.00 | 0.00 | 56 | 1019.2 |